Regional Weather Roundup
Issued by NWS

Home | Current Version | Previous Version | Graphics & Text | Print | Product List | Glossary On
Versions: 1 2 3 4 5 6 7 8 9 10 11 12 13 14 15 16 17 18 19 20 21 22 23 24 25 26 27
000
ASUS45 KBOI 191210
RWRID

IDAHO REGIONAL WEATHER ROUNDUP
NATIONAL WEATHER SERVICE BOISE ID
500 AM MST SUN NOV 19 2017

NOTE: "FAIR" INDICATES FEW OR NO CLOUDS BELOW 12000 FEET
WITH NO SIGNIFICANT WEATHER AND/OR OBSTRUCTIONS TO VISIBILITY

IDZ012-014-191300-
SOUTHWEST IDAHO


CITY           SKY/WX    TMP DP  RH WIND       PRES   REMARKS
BOISE          CLEAR     31  22  69 E6        30.21F WCI  25
CALDWELL       CLEAR     29  25  85 E9        30.22F WCI  20
MOUNTAIN HOME  CLEAR     30  25  83 SE16      30.21F WCI  18
$$

IDZ016-017-191300-
SOUTHCENTRAL IDAHO


CITY           SKY/WX    TMP DP  RH WIND       PRES   REMARKS
BURLEY         PTCLDY    25  20  81 NE3       30.21F
JEROME         CLEAR     26  21  81 NE16      30.22F WCI  14
TWIN FALLS     PTCLDY    19  18  95 CALM      30.21F
$$

IDZ019>023-191300-
SOUTHEAST IDAHO


CITY           SKY/WX    TMP DP  RH WIND       PRES   REMARKS
IDAHO FALLS    CLOUDY    21  19  92 NW3       30.27F
POCATELLO      CLOUDY    23  21  92 CALM      30.26F
REXBURG        CLOUDY    21  18  88 NE5       30.27F WCI  15
$$

IDZ006-010-011-018-031-032-191300-
CENTRAL IDAHO MOUNTAINS


CITY           SKY/WX    TMP DP  RH WIND       PRES   REMARKS
MCCALL         PTCLDY    18  16  92 CALM      30.15F
HAILEY         CLEAR     19  14  79 NW10      30.26F WCI   8
STANLEY          N/A      6   2  83 CALM      30.21S
SALMON         CLOUDY    21  17  84 SE3       30.22F
CHALLIS        PTCLDY    19  14  81 CALM      30.22F
$$

IDZ002-004-006-007-026-191300-
NORTHERN IDAHO


CITY           SKY/WX    TMP DP  RH WIND       PRES   REMARKS
LEWISTON       MOCLDY    38  27  64 E6        30.09F WCI  33
LOWELL           N/A     31  30  96 CALM      30.21F
COEUR D`ALENE  CLOUDY    29  28  96 NE3       30.07F
MULLAN PASS    CLOUDY    24  17  74 SW10      29.99S WCI  14
$$




USA.gov is the U.S. government's official web portal to all federal, state and local government web resources and services.